User: anonymous   Login
Location: San Vito
(41.8833°N, 12.9833°E)
Time: 13:38:06
(UTC+00:00)
Language:

COBE Rocket - Orbit

View from above orbital plane
View from above orbital plane
View from above satellite
View from above satellite

Ground track
Ground track

The orbit data is extracted from the following two-line orbital elements,

1 20323U 89089B   20021.58237618 +.00000031 +00000-0 +17306-4 0  9994
2 20323 097.0674 191.2410 0071101 337.6665 022.1440 14.48330669571469
Epoch (UTC): 21 January 2020 13:58:37
Eccentricity: 0.0071101
inclination: 97.0674°
perigee height: 680 km
apogee height: 781 km
right ascension of ascending node: 191.2410°
argument of perigee: 337.6665°
revolutions per day: 14.48330669
mean anomaly at epoch: 22.1440°
orbit number at epoch: 57146

The dashed part of the orbit path shows where the satellite is in the earth's shadow,  

DLR